Flag for Ukraine Weather past 2 weeks in Luhansk, Ukraine

Now
70 °F

Clear.


Feels Like: 70 °F
Forecast: 63 / 92 °F
Wind: 8 mph from East

Location: Rostov-Na-Donu

Current Time: Jul 31, 2014 at 2:25:42 AM

Latest Report: Jul 31, 2014 at 2:00 AM


Visibility: 10 mi

Pressure: 29.95 "Hg

Humidity: 46%

Dew point: 48 °F

Location of LuhanskLocation

Historic Weather in Luhansk — Graph

°F

Luhansk temperature yesterday

Maximum temperature yesterday: 90 °F (at 2:00 PM)
Minimum temperature yesterday: 66 °F (at 2:30 AM)
Average temperature yesterday: 78 °F

Past Weeks' High & Low Weather Summary

 TemperatureHumidityPressure
High95 °F (Jul 17, 1:30 PM)88% (Jul 22, 7:30 AM)30.09 "Hg (Jul 22, 7:30 AM)
Low61 °F (Jul 21, 2:30 AM)18% (Jul 21, 2:00 PM)29.71 "Hg (Jul 17, 11:30 PM)
Average78 °F41%29.87 "Hg
* Reported Jul 16 1:00 AM — Jul 31 1:30 AM, Luhansk, Weather by CustomWeather, © 2014

Note: Actual official high and low records may vary slightly from our data, if they occured in-between our weather recording intervals... More about our weather records

Advertising

Luhansk weather history for previous 24 hours

 ConditionsComfort  
Time TempWeatherWind HumidityBarometerVisibility
1:30 AM
Jul 31
72 °FClear.8 mph44%29.95 "Hg10 mi
1:00 AM72 °FClear.8 mph44%29.95 "Hg10 mi
12:30 AM73 °FPassing clouds.8 mph41%29.95 "HgN/A
12:00 AM75 °FClear.8 mph36%29.95 "Hg10 mi
11:30 PM
Jul 30
77 °FClear.8 mph34%29.95 "Hg10 mi
11:00 PM73 °FClear.8 mph38%29.95 "Hg10 mi
10:30 PM73 °FClear.8 mph41%29.95 "Hg10 mi
10:00 PM72 °FClear.6 mph47%29.95 "Hg10 mi
9:30 PM75 °FClear.8 mph41%29.95 "Hg10 mi
8:30 PM77 °FSunny.6 mph39%29.95 "Hg10 mi
8:00 PM79 °FSunny.6 mph37%29.92 "Hg10 mi
7:30 PM81 °FSunny.6 mph34%29.92 "Hg10 mi
7:00 PM84 °FSunny.6 mph31%29.92 "Hg10 mi
6:30 PM86 °FSunny.10 mph27%29.92 "Hg10 mi
6:00 PM88 °FSunny.13 mph25%29.92 "Hg10 mi
5:30 PM88 °FSunny.15 mph24%29.92 "Hg10 mi
5:00 PM90 °FSunny.15 mph22%29.95 "Hg10 mi
4:30 PM90 °FSunny.17 mph22%29.95 "Hg10 mi
4:00 PM90 °FSunny.20 mph21%29.95 "Hg10 mi
3:30 PM90 °FSunny.20 mph21%29.95 "Hg10 mi
3:00 PM90 °FSunny.24 mph21%29.95 "Hg10 mi
2:30 PM90 °FSunny.26 mph21%29.95 "Hg10 mi
2:00 PM90 °FSunny.20 mph21%29.95 "Hg10 mi
1:30 PM88 °FSunny.20 mph24%29.95 "Hg10 mi
1:00 PM88 °FSunny.20 mph22%29.95 "Hg10 mi
12:30 PM88 °FSunny.22 mph24%29.98 "Hg10 mi
12:00 PM88 °FSunny.22 mph24%29.95 "Hg10 mi
11:30 AM88 °FSunny.26 mph24%29.98 "Hg10 mi
11:00 AM86 °FSunny.15 mph25%29.98 "Hg10 mi
10:30 AM86 °FPassing clouds.13 mph29%29.98 "HgN/A
10:00 AM82 °FPassing clouds.10 mph32%29.98 "HgN/A
9:30 AM81 °FPassing clouds.6 mph39%29.98 "HgN/A
9:00 AM79 °FPassing clouds.6 mph39%29.98 "HgN/A
8:30 AM75 °FSunny.8 mph44%29.98 "Hg10 mi
8:00 AM75 °FSunny.8 mph41%29.98 "Hg10 mi
7:30 AM73 °FSunny.6 mph47%29.98 "Hg10 mi
7:00 AM70 °FSunny.13 mph53%29.98 "Hg10 mi
6:30 AM72 °FSunny.10 mph50%29.98 "Hg10 mi
6:00 AM68 °FSunny.8 mph56%29.95 "Hg10 mi
5:30 AM66 °FClear.8 mph56%29.95 "Hg10 mi
5:00 AM68 °FClear.8 mph53%29.95 "Hg10 mi
4:30 AM66 °FClear.8 mph56%29.95 "Hg10 mi
4:00 AM66 °FClear.8 mph56%29.95 "Hg10 mi
3:30 AM66 °FClear.6 mph56%29.95 "Hg10 mi
3:00 AM66 °FClear.6 mph56%29.95 "Hg10 mi
2:30 AM66 °FClear.6 mph56%29.95 "Hg10 mi
2:00 AM68 °FClear.6 mph53%29.95 "Hg10 mi
Weather by CustomWeather, © 2014

See weather overviewHow to use our weather pages